QPF
0.05 0.06 0.07 0.09 0.08 0.07 0.07 0.07 0.07 0.06 0.05 0.03 0.03 0.04 0.04 0.04 0.02 0.01 0.01 0.02 0.02 0.03 0.03 0.04 0.05 0.05 0.05 0.05 0.06 0.05 0.04 0.03 0.03 0.03 0.02 0.02 0.02 0.02 0.02 0.02 0.02 0.03 0.03
0.07 0.06 0.06 0.09 0.08 0.07 0.07 0.08 0.08 0.08 0.07 0.06 0.05 0.03 0.03 0.02 0.02 0.02 0.01 0.01 0.02 0.02 0.03 0.05 0.06 0.07 0.06 0.07 0.07 0.07 0.06 0.05 0.05 0.03 0.02 0.02 0.02 0.02 0.02 0.02 0.02 0.03 0.02
0.06 0.06 0.06 0.07 0.06 0.06 0.08 0.08 0.08 0.08 0.06 0.04 0.05 0.03 0.03 0.02 0.02 0.01 0.01 0.01 0.02 0.02 0.02 0.04 0.06 0.07 0.07 0.08 0.08 0.07 0.06 0.05 0.05 0.05 0.04 0.03 0.03 0.03 0.03 0.03 0.03 0.03 0.02
0.02 0.04 0.05 0.05 0.06 0.08 0.09 0.09 0.08 0.07 0.06 0.05 0.05 0.05 0.04 0.03 0.02 0.01 0.01 0.01 0.02 0.02 0.02 0.03 0.04 0.05 0.05 0.06 0.08 0.07 0.07 0.06 0.04 0.05 0.05 0.05 0.05 0.04 0.03 0.02 0.03 0.03 0.02
0.01 0.02 0.05 0.06 0.06 0.08 0.09 0.07 0.06 0.06 0.05 0.06 0.04 0.05 0.03 0.02 0.03 0.02 0.02 0.01 0.00 0.01 0.03 0.02 0.02 0.03 0.04 0.05 0.06 0.06 0.06 0.06 0.05 0.04 0.04 0.04 0.05 0.04 0.04 0.04 0.04 0.03 0.02
0.02 0.03 0.05 0.06 0.07 0.09 0.11 0.10 0.09 0.08 0.06 0.06 0.03 0.03 0.02 0.02 0.02 0.02 0.02 0.01 0.00 0.01 0.03 0.03 0.04 0.03 0.03 0.06 0.06 0.07 0.06 0.06 0.06 0.05 0.04 0.05 0.06 0.05 0.05 0.05 0.04 0.03 0.03
0.04 0.06 0.06 0.09 0.08 0.10 0.13 0.11 0.11 0.11 0.07 0.07 0.06 0.04 0.03 0.02 0.02 0.01 0.02 0.02 0.02 0.01 0.03 0.04 0.05 0.05 0.04 0.04 0.05 0.07 0.09 0.07 0.07 0.07 0.05 0.05 0.06 0.06 0.06 0.06 0.05 0.05 0.04
0.06 0.06 0.08 0.09 0.10 0.11 0.13 0.14 0.13 0.12 0.08 0.08 0.07 0.05 0.04 0.04 0.04 0.02 0.02 0.02 0.03 0.02 0.03 0.04 0.04 0.05 0.06 0.06 0.05 0.05 0.10 0.08 0.07 0.08 0.06 0.06 0.07 0.07 0.06 0.05 0.04 0.04 0.05
0.07 0.06 0.07 0.07 0.08 0.10 0.11 0.12 0.12 0.12 0.10 0.08 0.07 0.07 0.05 0.05 0.06 0.04 0.02 0.01 0.03 0.04 0.03 0.03 0.03 0.05 0.06 0.07 0.07 0.06 0.07 0.07 0.07 0.08 0.07 0.07 0.07 0.06 0.06 0.05 0.04 0.04 0.04
0.06 0.05 0.06 0.07 0.08 0.07 0.10 0.10 0.10 0.11 0.11 0.10 0.09 0.07 0.06 0.06 0.07 0.06 0.04 0.02 0.02 0.02 0.03 0.04 0.04 0.06 0.05 0.05 0.06 0.06 0.06 0.06 0.05 0.06 0.06 0.06 0.06 0.05 0.04 0.04 0.04 0.05 0.06
0.05 0.06 0.06 0.08 0.08 0.06 0.07 0.09 0.10 0.12 0.10 0.09 0.09 0.06 0.07 0.08 0.07 0.07 0.07 0.05 0.03 0.02 0.02 0.04 0.04 0.04 0.05 0.06 0.05 0.04 0.03 0.04 0.04 0.05 0.05 0.05 0.05 0.05 0.05 0.04 0.06 0.06 0.07
0.05 0.05 0.06 0.08 0.09 0.10 0.09 0.09 0.11 0.13 0.11 0.09 0.08 0.08 0.09 0.09 0.07 0.08 0.07 0.06 0.06 0.02 0.02 0.02 0.02 0.03 0.03 0.03 0.03 0.02 0.02 0.02 0.03 0.05 0.05 0.05 0.05 0.05 0.05 0.04 0.04 0.05 0.06
0.05 0.07 0.08 0.11 0.11 0.12 0.11 0.11 0.15 0.14 0.12 0.09 0.08 0.07 0.06 0.07 0.07 0.07 0.08 0.06 0.05 0.03 0.02 0.02 0.01 0.02 0.02 0.02 0.02 0.02 0.02 0.03 0.04 0.05 0.07 0.08 0.07 0.07 0.05 0.04 0.04 0.05 0.06
0.03 0.03 0.04 0.06 0.05 0.05 0.05 0.07 0.11 0.13 0.15 0.12 0.09 0.08 0.08 0.08 0.08 0.08 0.08 0.07 0.07 0.05 0.05 0.04 0.02 0.02 0.02 0.03 0.02 0.01 0.01 0.02 0.04 0.06 0.10 0.11 0.08 0.05 0.04 0.05 0.05 0.05 0.05
0.02 0.02 0.02 0.03 0.03 0.03 0.04 0.05 0.05 0.09 0.14 0.19 0.16 0.12 0.09 0.09 0.09 0.08 0.06 0.07 0.08 0.09 0.08 0.06 0.04 0.03 0.02 0.04 0.02 0.02 0.02 0.03 0.05 0.07 0.07 0.07 0.07 0.06 0.05 0.05 0.06 0.05 0.05
0.02 0.02 0.02 0.03 0.03 0.03 0.03 0.04 0.04 0.05 0.06 0.09 0.15 0.16 0.13 0.10 0.09 0.09 0.07 0.07 0.08 0.09 0.09 0.07 0.06 0.04 0.03 0.03 0.03 0.03 0.03 0.04 0.04 0.03 0.02 0.01 0.02 0.03 0.04 0.05 0.04 0.03 0.03
0.02 0.03 0.03 0.04 0.03 0.02 0.02 0.02 0.02 0.02 0.04 0.05 0.08 0.10 0.12 0.12 0.09 0.09 0.09 0.09 0.08 0.07 0.09 0.07 0.06 0.05 0.03 0.04 0.04 0.04 0.04 0.03 0.02 0.02 0.02 0.01 0.01 0.01 0.01 0.03 0.04 0.03 0.03
0.02 0.02 0.03 0.03 0.02 0.02 0.02 0.02 0.02 0.02 0.03 0.04 0.06 0.07 0.06 0.06 0.07 0.08 0.08 0.09 0.08 0.07 0.07 0.06 0.05 0.05 0.05 0.04 0.05 0.05 0.03 0.03 0.03 0.03 0.02 0.01 0.01 0.01 0.01 0.02 0.02 0.03 0.03
0.02 0.02 0.02 0.02 0.02 0.02 0.02 0.02 0.02 0.03 0.03 0.03 0.04 0.05 0.05 0.06 0.07 0.07 0.07 0.06 0.06 0.05 0.06 0.04 0.04 0.05 0.04 0.02 0.04 0.04 0.03 0.04 0.03 0.04 0.04 0.03 0.02 0.02 0.02 0.01 0.02 0.02 0.02
0.01 0.01 0.01 0.01 0.01 0.01 0.02 0.02 0.03 0.03 0.03 0.03 0.03 0.04 0.04 0.04 0.04 0.05 0.05 0.05 0.06 0.06 0.05 0.04 0.04 0.04 0.04 0.03 0.03 0.03 0.03 0.04 0.03 0.03 0.04 0.04 0.03 0.03 0.03 0.02 0.03 0.03 0.03
0.01 0.02 0.01 0.01 0.01 0.02 0.02 0.02 0.02 0.01 0.01 0.02 0.02 0.03 0.03 0.03 0.03 0.05 0.05 0.06 0.06 0.06 0.05 0.04 0.03 0.03 0.03 0.03 0.03 0.03 0.03 0.05 0.04 0.03 0.04 0.04 0.04 0.04 0.04 0.04 0.03 0.04 0.03
0.01 0.01 0.02 0.02 0.02 0.02 0.02 0.02 0.02 0.02 0.02 0.02 0.02 0.02 0.02 0.03 0.03 0.02 0.03 0.03 0.05 0.05 0.05 0.05 0.04 0.04 0.04 0.04 0.05 0.04 0.04 0.04 0.04 0.04 0.04 0.04 0.03 0.02 0.03 0.03 0.04 0.04 0.03
0.01 0.01 0.01 0.02 0.02 0.02 0.03 0.02 0.02 0.02 0.03 0.04 0.03 0.03 0.03 0.02 0.02 0.02 0.02 0.02 0.01 0.02 0.03 0.03 0.03 0.03 0.04 0.05 0.05 0.05 0.06 0.05 0.05 0.04 0.04 0.04 0.02 0.02 0.02 0.03 0.03 0.03 0.03
0.01 0.01 0.02 0.02 0.02 0.03 0.04 0.03 0.03 0.03 0.03 0.03 0.03 0.03 0.03 0.02 0.02 0.03 0.02 0.02 0.02 0.02 0.03 0.02 0.02 0.03 0.04 0.05 0.06 0.06 0.06 0.05 0.05 0.04 0.05 0.05 0.05 0.04 0.03 0.04 0.04 0.05 0.05
0.02 0.02 0.03 0.03 0.04 0.04 0.04 0.03 0.02 0.02 0.02 0.02 0.02 0.03 0.03 0.02 0.03 0.03 0.02 0.02 0.02 0.02 0.03 0.03 0.03 0.04 0.04 0.04 0.05 0.04 0.04 0.04 0.04 0.04 0.04 0.04 0.05 0.06 0.05 0.05 0.05 0.06 0.05
0.03 0.03 0.03 0.04 0.05 0.05 0.04 0.03 0.02 0.01 0.02 0.02 0.02 0.02 0.02 0.03 0.03 0.04 0.02 0.02 0.03 0.04 0.03 0.03 0.03 0.03 0.02 0.03 0.04 0.03 0.02 0.03 0.03 0.03 0.03 0.04 0.04 0.07 0.08 0.06 0.05 0.04 0.04
MSLP
1015.59 1015.67 1015.69 1015.66 1015.57 1015.44 1015.28 1015.11 1014.93 1014.73 1014.51 1014.28 1014.04 1013.81 1013.63 1013.51 1013.47 1013.52 1013.65 1013.83 1014.03 1014.22 1014.37 1014.46 1014.50 1014.52 1014.55 1014.61 1014.73 1014.93 1015.20 1015.53 1015.90 1016.27 1016.63 1016.95 1017.24 1017.50 1017.74 1017.97 1018.21 1018.47 1018.74
1015.20 1015.28 1015.31 1015.28 1015.19 1015.07 1014.91 1014.73 1014.53 1014.33 1014.11 1013.87 1013.64 1013.41 1013.22 1013.08 1013.01 1013.02 1013.10 1013.24 1013.41 1013.58 1013.73 1013.85 1013.93 1014.00 1014.07 1014.17 1014.33 1014.56 1014.85 1015.19 1015.57 1015.95 1016.32 1016.66 1016.97 1017.23 1017.48 1017.71 1017.93 1018.17 1018.43
1014.86 1014.95 1014.99 1014.97 1014.90 1014.78 1014.62 1014.44 1014.25 1014.04 1013.82 1013.59 1013.35 1013.11 1012.90 1012.73 1012.61 1012.56 1012.58 1012.66 1012.78 1012.92 1013.07 1013.21 1013.33 1013.45 1013.57 1013.72 1013.92 1014.17 1014.47 1014.81 1015.18 1015.55 1015.92 1016.26 1016.57 1016.84 1017.10 1017.35 1017.59 1017.84 1018.09
1014.59 1014.69 1014.74 1014.74 1014.68 1014.58 1014.43 1014.25 1014.06 1013.85 1013.63 1013.39 1013.15 1012.91 1012.67 1012.46 1012.29 1012.18 1012.13 1012.14 1012.21 1012.32 1012.45 1012.60 1012.75 1012.91 1013.08 1013.28 1013.50 1013.76 1014.05 1014.37 1014.71 1015.05 1015.39 1015.71 1016.02 1016.31 1016.59 1016.86 1017.14 1017.42 1017.71
1014.39 1014.49 1014.56 1014.58 1014.54 1014.45 1014.32 1014.14 1013.95 1013.74 1013.52 1013.28 1013.04 1012.79 1012.53 1012.29 1012.08 1011.91 1011.79 1011.74 1011.75 1011.81 1011.92 1012.07 1012.24 1012.43 1012.64 1012.86 1013.09 1013.35 1013.61 1013.89 1014.18 1014.48 1014.77 1015.06 1015.35 1015.65 1015.95 1016.26 1016.58 1016.92 1017.25
1014.25 1014.36 1014.44 1014.48 1014.46 1014.39 1014.26 1014.10 1013.91 1013.70 1013.47 1013.24 1013.00 1012.74 1012.48 1012.23 1011.98 1011.77 1011.60 1011.49 1011.44 1011.45 1011.53 1011.66 1011.83 1012.04 1012.26 1012.49 1012.73 1012.97 1013.20 1013.44 1013.67 1013.90 1014.13 1014.38 1014.64 1014.92 1015.23 1015.57 1015.93 1016.31 1016.70
1014.15 1014.26 1014.36 1014.41 1014.42 1014.36 1014.26 1014.10 1013.92 1013.71 1013.50 1013.27 1013.03 1012.79 1012.53 1012.27 1012.01 1011.77 1011.56 1011.40 1011.30 1011.26 1011.30 1011.40 1011.56 1011.75 1011.97 1012.21 1012.44 1012.65 1012.86 1013.04 1013.21 1013.38 1013.55 1013.74 1013.95 1014.21 1014.50 1014.84 1015.22 1015.63 1016.05
1014.04 1014.16 1014.27 1014.36 1014.39 1014.37 1014.29 1014.16 1013.99 1013.79 1013.59 1013.37 1013.15 1012.91 1012.67 1012.42 1012.16 1011.91 1011.67 1011.47 1011.32 1011.24 1011.22 1011.28 1011.40 1011.57 1011.78 1012.00 1012.22 1012.42 1012.60 1012.75 1012.88 1012.99 1013.10 1013.23 1013.39 1013.59 1013.85 1014.16 1014.53 1014.93 1015.35
1013.90 1014.03 1014.16 1014.28 1014.36 1014.38 1014.34 1014.24 1014.10 1013.93 1013.74 1013.54 1013.33 1013.12 1012.89 1012.66 1012.41 1012.16 1011.91 1011.68 1011.48 1011.35 1011.27 1011.27 1011.34 1011.48 1011.66 1011.86 1012.07 1012.27 1012.44 1012.57 1012.67 1012.75 1012.82 1012.90 1013.00 1013.14 1013.34 1013.60 1013.91 1014.26 1014.65
1013.68 1013.82 1013.99 1014.16 1014.29 1014.37 1014.39 1014.34 1014.24 1014.10 1013.93 1013.75 1013.56 1013.37 1013.16 1012.95 1012.72 1012.47 1012.21 1011.96 1011.73 1011.54 1011.41 1011.35 1011.36 1011.44 1011.58 1011.77 1011.97 1012.16 1012.34 1012.49 1012.59 1012.66 1012.71 1012.75 1012.81 1012.89 1013.02 1013.20 1013.43 1013.70 1014.01
1013.36 1013.53 1013.73 1013.95 1014.15 1014.31 1014.39 1014.41 1014.36 1014.25 1014.11 1013.95 1013.78 1013.61 1013.43 1013.23 1013.02 1012.79 1012.53 1012.27 1012.01 1011.77 1011.58 1011.46 1011.41 1011.43 1011.53 1011.68 1011.87 1012.08 1012.27 1012.44 1012.58 1012.67 1012.72 1012.75 1012.78 1012.81 1012.88 1012.98 1013.12 1013.30 1013.52
1012.92 1013.12 1013.37 1013.65 1013.92 1014.15 1014.31 1014.40 1014.40 1014.34 1014.23 1014.10 1013.95 1013.79 1013.63 1013.45 1013.26 1013.05 1012.81 1012.54 1012.27 1012.00 1011.77 1011.58 1011.47 1011.44 1011.48 1011.60 1011.77 1011.98 1012.20 1012.40 1012.57 1012.70 1012.78 1012.83 1012.85 1012.87 1012.89 1012.93 1012.99 1013.09 1013.22
1012.39 1012.62 1012.91 1013.25 1013.59 1013.89 1014.12 1014.27 1014.33 1014.32 1014.24 1014.13 1013.99 1013.85 1013.71 1013.56 1013.40 1013.21 1013.00 1012.75 1012.48 1012.21 1011.94 1011.72 1011.55 1011.45 1011.44 1011.52 1011.66 1011.86 1012.08 1012.31 1012.52 1012.70 1012.83 1012.92 1012.97 1012.99 1013.00 1013.01 1013.03 1013.07 1013.13
1011.79 1012.04 1012.38 1012.76 1013.15 1013.51 1013.81 1014.02 1014.13 1014.15 1014.10 1014.01 1013.89 1013.76 1013.64 1013.52 1013.39 1013.25 1013.08 1012.87 1012.63 1012.36 1012.10 1011.85 1011.64 1011.49 1011.43 1011.45 1011.55 1011.71 1011.93 1012.17 1012.41 1012.62 1012.80 1012.94 1013.04 1013.10 1013.14 1013.16 1013.17 1013.19 1013.22
1011.18 1011.46 1011.82 1012.23 1012.66 1013.06 1013.40 1013.65 1013.79 1013.85 1013.82 1013.75 1013.64 1013.53 1013.43 1013.34 1013.26 1013.16 1013.04 1012.89 1012.70 1012.47 1012.23 1011.98 1011.75 1011.56 1011.44 1011.40 1011.45 1011.57 1011.75 1011.97 1012.22 1012.46 1012.68 1012.88 1013.03 1013.15 1013.24 1013.31 1013.36 1013.40 1013.43
1010.62 1010.91 1011.28 1011.71 1012.15 1012.57 1012.93 1013.21 1013.38 1013.45 1013.44 1013.38 1013.29 1013.19 1013.11 1013.04 1013.00 1012.95 1012.90 1012.81 1012.69 1012.52 1012.31 1012.08 1011.85 1011.65 1011.49 1011.39 1011.37 1011.43 1011.56 1011.74 1011.97 1012.21 1012.46 1012.69 1012.91 1013.09 1013.25 1013.38 1013.50 1013.59 1013.66
1010.17 1010.46 1010.83 1011.26 1011.70 1012.11 1012.48 1012.76 1012.94 1013.02 1013.02 1012.96 1012.87 1012.78 1012.71 1012.67 1012.65 1012.65 1012.65 1012.63 1012.57 1012.47 1012.32 1012.13 1011.92 1011.71 1011.52 1011.38 1011.31 1011.30 1011.36 1011.49 1011.67 1011.90 1012.14 1012.40 1012.65 1012.89 1013.11 1013.32 1013.51 1013.67 1013.81
1009.84 1010.14 1010.50 1010.90 1011.33 1011.73 1012.08 1012.35 1012.52 1012.61 1012.60 1012.54 1012.45 1012.36 1012.29 1012.25 1012.24 1012.27 1012.30 1012.32 1012.32 1012.28 1012.19 1012.05 1011.88 1011.68 1011.50 1011.33 1011.21 1011.15 1011.15 1011.21 1011.34 1011.53 1011.75 1012.00 1012.26 1012.54 1012.81 1013.08 1013.33 1013.57 1013.78
1009.64 1009.93 1010.27 1010.65 1011.05 1011.42 1011.75 1012.00 1012.17 1012.24 1012.23 1012.16 1012.06 1011.95 1011.86 1011.80 1011.78 1011.80 1011.84 1011.89 1011.92 1011.92 1011.88 1011.79 1011.66 1011.50 1011.33 1011.17 1011.03 1010.93 1010.89 1010.90 1010.97 1011.11 1011.29 1011.51 1011.77 1012.05 1012.35 1012.66 1012.96 1013.26 1013.53
1009.51 1009.80 1010.12 1010.47 1010.84 1011.18 1011.48 1011.71 1011.86 1011.92 1011.89 1011.81 1011.68 1011.55 1011.42 1011.32 1011.27 1011.25 1011.27 1011.30 1011.34 1011.36 1011.35 1011.31 1011.23 1011.12 1010.98 1010.84 1010.71 1010.61 1010.54 1010.52 1010.56 1010.64 1010.78 1010.97 1011.20 1011.47 1011.76 1012.08 1012.41 1012.74 1013.06
1009.41 1009.69 1009.99 1010.32 1010.64 1010.96 1011.22 1011.43 1011.56 1011.60 1011.56 1011.46 1011.31 1011.14 1010.97 1010.81 1010.70 1010.62 1010.59 1010.58 1010.59 1010.61 1010.62 1010.61 1010.57 1010.51 1010.43 1010.33 1010.24 1010.16 1010.10 1010.07 1010.08 1010.14 1010.24 1010.39 1010.59 1010.82 1011.10 1011.40 1011.74 1012.08 1012.43
1009.29 1009.56 1009.84 1010.13 1010.42 1010.70 1010.94 1011.12 1011.23 1011.26 1011.21 1011.09 1010.91 1010.70 1010.48 1010.26 1010.08 1009.93 1009.83 1009.76 1009.73 1009.72 1009.72 1009.73 1009.73 1009.72 1009.69 1009.66 1009.62 1009.59 1009.56 1009.55 1009.57 1009.61 1009.69 1009.81 1009.97 1010.17 1010.41 1010.70 1011.01 1011.36 1011.72
1009.14 1009.38 1009.63 1009.89 1010.14 1010.39 1010.60 1010.75 1010.85 1010.86 1010.80 1010.66 1010.46 1010.22 1009.96 1009.69 1009.44 1009.21 1009.04 1008.91 1008.82 1008.77 1008.76 1008.78 1008.80 1008.83 1008.87 1008.90 1008.93 1008.95 1008.98 1009.01 1009.05 1009.10 1009.17 1009.27 1009.40 1009.57 1009.78 1010.03 1010.32 1010.65 1011.01
1008.94 1009.15 1009.37 1009.59 1009.82 1010.03 1010.21 1010.34 1010.41 1010.42 1010.34 1010.20 1009.98 1009.72 1009.42 1009.11 1008.81 1008.53 1008.29 1008.10 1007.97 1007.89 1007.85 1007.86 1007.91 1007.98 1008.06 1008.15 1008.24 1008.33 1008.41 1008.48 1008.56 1008.63 1008.71 1008.80 1008.91 1009.06 1009.24 1009.46 1009.73 1010.04 1010.39
1008.76 1008.93 1009.11 1009.30 1009.49 1009.66 1009.81 1009.92 1009.98 1009.97 1009.88 1009.73 1009.50 1009.23 1008.91 1008.58 1008.24 1007.93 1007.65 1007.42 1007.25 1007.14 1007.09 1007.10 1007.15 1007.25 1007.37 1007.50 1007.64 1007.78 1007.92 1008.04 1008.15 1008.25 1008.34 1008.43 1008.54 1008.66 1008.82 1009.02 1009.26 1009.55 1009.89
1008.64 1008.77 1008.91 1009.07 1009.22 1009.37 1009.49 1009.57 1009.60 1009.57 1009.47 1009.31 1009.08 1008.79 1008.46 1008.12 1007.77 1007.44 1007.14 1006.89 1006.70 1006.58 1006.52 1006.53 1006.60 1006.70 1006.85 1007.02 1007.20 1007.38 1007.55 1007.71 1007.84 1007.97 1008.07 1008.17 1008.27 1008.38 1008.52 1008.69 1008.91 1009.18 1009.50
Thickness
5768 5769 5767 5766 5768 5768 5768 5766 5767 5766 5766 5766 5768 5768 5767 5767 5767 5767 5766 5761 5758 5756 5754 5753 5751 5750 5748 5746 5745 5743 5742 5740 5739 5738 5736 5735 5734 5733 5732 5730 5729 5728 5727
5769 5769 5768 5767 5768 5768 5768 5766 5767 5766 5767 5768 5768 5768 5768 5769 5768 5767 5767 5764 5760 5758 5756 5754 5752 5751 5749 5747 5746 5744 5743 5741 5740 5738 5737 5736 5734 5733 5732 5730 5729 5728 5727
5769 5769 5770 5769 5769 5768 5767 5767 5767 5767 5767 5768 5768 5769 5769 5769 5769 5767 5768 5767 5765 5761 5758 5756 5754 5752 5750 5749 5747 5745 5744 5742 5740 5739 5737 5736 5734 5733 5732 5730 5729 5728 5727
5769 5769 5770 5771 5769 5769 5769 5768 5768 5767 5767 5767 5767 5769 5769 5769 5769 5768 5769 5768 5767 5766 5762 5758 5755 5753 5752 5750 5748 5746 5744 5742 5741 5739 5738 5736 5735 5733 5732 5731 5729 5728 5727
5771 5771 5771 5771 5770 5770 5770 5770 5770 5767 5766 5765 5767 5768 5770 5770 5769 5770 5770 5769 5768 5766 5765 5760 5757 5755 5752 5751 5748 5746 5745 5743 5741 5739 5738 5737 5735 5734 5732 5731 5729 5728 5727
5772 5772 5772 5771 5771 5770 5768 5768 5765 5765 5765 5765 5768 5768 5769 5771 5771 5770 5770 5770 5768 5767 5766 5764 5760 5757 5754 5751 5749 5747 5745 5744 5741 5740 5738 5737 5735 5734 5732 5731 5730 5728 5727
5772 5771 5772 5770 5770 5769 5767 5767 5766 5764 5765 5766 5763 5763 5768 5771 5771 5770 5770 5770 5769 5767 5765 5763 5762 5760 5757 5752 5750 5748 5746 5744 5742 5740 5738 5737 5735 5734 5732 5731 5730 5728 5727
5772 5773 5770 5770 5769 5767 5765 5765 5763 5762 5764 5765 5761 5758 5757 5761 5764 5770 5769 5768 5767 5766 5765 5764 5761 5759 5757 5756 5753 5748 5745 5743 5741 5740 5738 5736 5735 5733 5731 5730 5729 5727 5725
5771 5770 5770 5770 5768 5767 5766 5764 5763 5761 5760 5762 5763 5759 5753 5752 5757 5763 5765 5765 5763 5763 5764 5763 5761 5759 5756 5755 5753 5749 5745 5742 5740 5738 5737 5735 5734 5732 5730 5728 5727 5726 5724
5770 5769 5768 5767 5765 5766 5764 5764 5765 5762 5759 5758 5760 5759 5759 5758 5752 5752 5758 5762 5761 5760 5760 5761 5760 5757 5754 5753 5750 5747 5744 5741 5739 5737 5735 5733 5732 5730 5728 5727 5725 5723 5722
5769 5767 5767 5765 5763 5763 5762 5761 5760 5760 5760 5758 5758 5758 5756 5755 5755 5749 5747 5752 5756 5758 5758 5756 5756 5755 5752 5750 5748 5745 5742 5739 5737 5735 5733 5732 5730 5728 5726 5724 5723 5721 5720
5768 5766 5765 5763 5762 5760 5759 5759 5758 5758 5757 5755 5755 5756 5754 5752 5750 5749 5746 5745 5747 5752 5753 5753 5752 5750 5749 5747 5745 5742 5739 5736 5734 5732 5730 5729 5728 5726 5724 5722 5720 5719 5717
5766 5764 5763 5760 5759 5757 5757 5757 5756 5755 5754 5751 5751 5752 5753 5752 5751 5748 5744 5743 5743 5747 5747 5749 5749 5747 5745 5744 5741 5737 5735 5733 5731 5729 5727 5725 5725 5723 5721 5719 5717 5716 5714
5765 5763 5760 5758 5757 5756 5756 5755 5755 5753 5751 5750 5750 5748 5748 5749 5747 5745 5742 5739 5737 5740 5741 5741 5744 5743 5741 5739 5736 5733 5732 5729 5727 5725 5723 5721 5720 5719 5717 5715 5714 5712 5711
5762 5760 5758 5756 5755 5754 5753 5751 5752 5749 5748 5748 5748 5746 5745 5746 5744 5743 5742 5739 5734 5730 5733 5736 5737 5738 5737 5735 5732 5730 5729 5726 5724 5721 5719 5718 5716 5715 5713 5712 5710 5709 5707
5758 5756 5754 5753 5752 5751 5749 5747 5747 5746 5743 5742 5741 5740 5740 5742 5741 5740 5738 5737 5735 5730 5727 5733 5732 5734 5731 5732 5728 5726 5724 5722 5721 5718 5716 5714 5712 5711 5709 5708 5706 5705 5703
5754 5752 5750 5749 5748 5747 5745 5743 5742 5741 5738 5737 5737 5736 5734 5733 5735 5735 5733 5731 5730 5728 5723 5725 5728 5728 5725 5723 5723 5721 5721 5719 5719 5715 5713 5710 5708 5706 5705 5703 5701 5700 5698
5751 5749 5747 5745 5744 5743 5741 5738 5736 5735 5732 5731 5730 5729 5728 5728 5725 5726 5726 5725 5723 5722 5719 5716 5719 5720 5718 5718 5717 5715 5717 5717 5715 5712 5709 5706 5704 5702 5700 5698 5696 5694 5693
5747 5746 5744 5741 5740 5738 5736 5734 5732 5730 5728 5726 5725 5723 5722 5720 5717 5718 5717 5718 5718 5718 5715 5713 5713 5714 5714 5714 5712 5711 5713 5710 5710 5708 5704 5701 5699 5697 5694 5692 5691 5689 5687
5744 5742 5740 5738 5735 5734 5731 5729 5726 5724 5722 5720 5719 5717 5715 5713 5711 5710 5711 5709 5709 5708 5708 5707 5707 5707 5707 5708 5706 5705 5704 5705 5704 5704 5701 5698 5695 5692 5689 5687 5685 5683 5681
5741 5737 5735 5733 5731 5729 5727 5723 5720 5718 5714 5713 5712 5711 5709 5705 5703 5702 5703 5702 5701 5701 5701 5700 5700 5700 5700 5698 5698 5699 5698 5698 5697 5697 5695 5693 5691 5688 5685 5682 5679 5677 5675
5735 5732 5730 5727 5725 5724 5717 5712 5711 5711 5708 5706 5704 5703 5703 5699 5695 5692 5691 5690 5689 5690 5691 5690 5691 5690 5688 5690 5690 5690 5689 5688 5687 5689 5686 5685 5685 5683 5680 5678 5674 5671 5669
5729 5726 5723 5721 5718 5713 5707 5704 5702 5702 5702 5699 5697 5696 5697 5696 5691 5689 5685 5683 5682 5680 5679 5681 5682 5681 5681 5683 5681 5681 5680 5678 5678 5680 5678 5676 5678 5676 5674 5672 5668 5664 5662
5723 5720 5717 5714 5710 5705 5699 5695 5693 5694 5694 5692 5690 5688 5686 5685 5683 5679 5679 5678 5678 5677 5675 5674 5674 5674 5675 5674 5672 5672 5672 5672 5672 5673 5671 5668 5670 5669 5669 5665 5660 5658 5655
5716 5713 5711 5707 5703 5698 5691 5688 5684 5688 5686 5684 5683 5680 5677 5675 5670 5667 5668 5668 5668 5668 5667 5665 5663 5664 5663 5663 5663 5664 5665 5665 5664 5665 5665 5662 5662 5661 5660 5658 5655 5651 5649
5709 5707 5703 5700 5696 5691 5684 5680 5676 5681 5679 5677 5675 5672 5666 5664 5659 5657 5659 5659 5657 5657 5658 5659 5657 5656 5657 5657 5655 5655 5656 5656 5657 5656 5656 5653 5654 5653 5651 5651 5649 5645 5642